| time (UTC) | temp F | wind direction | speed MPH | gust MPH | rain 1hr in | rain 24hr in | rain mn in | humidity % | barometer mb |
| 20260903030705 | 54 | 28 | 0.0 | 2.0 | 0.00 | 0.00 | 0.00 | 83 | 1020.9 |
| 20260903025206 | 54 | 28 | 1.0 | 2.0 | 0.00 | 0.00 | 0.00 | 83 | 1020.9 |
| 20260903024706 | 54 | 89 | 1.0 | 2.0 | 0.00 | 0.00 | 0.00 | 83 | 1020.8 |
| 20260903024205 | 54 | 40 | 1.0 | 2.0 | 0.00 | 0.00 | 0.00 | 83 | 1020.8 |
| 20260903023705 | 54 | 20 | 1.0 | 2.0 | 0.00 | 0.00 | 0.00 | 83 | 1020.8 |
| 20260903023205 | 54 | 151 | 1.0 | 2.0 | 0.00 | 0.00 | 0.00 | 82 | 1020.8 |
| 20260903022705 | 54 | 135 | 1.0 | 2.0 | 0.00 | 0.00 | 0.00 | 82 | 1020.9 |
| 20260903022206 | 54 | 35 | 1.0 | 2.0 | 0.00 | 0.00 | 0.00 | 82 | 1021.1 |
| 20260903021707 | 54 | 46 | 1.0 | 1.0 | 0.00 | 0.00 | 0.00 | 82 | 1020.9 |
| 20260903021205 | 54 | 89 | 1.0 | 2.0 | 0.00 | 0.00 | 0.00 | 82 | 1020.9 |
| 20260903020205 | 55 | 46 | 1.0 | 2.0 | 0.00 | 0.00 | 0.00 | 81 | 1020.9 |
| 20260903015705 | 55 | 63 | 0.0 | 2.0 | 0.00 | 0.00 | 0.00 | 81 | 1021.1 |
| 20260903014705 | 55 | 89 | 0.0 | 1.0 | 0.00 | 0.00 | 0.00 | 81 | 1020.9 |
| 20260903013705 | 55 | 46 | 0.0 | 2.0 | 0.00 | 0.00 | 0.00 | 80 | 1020.9 |
| 20260903013205 | 55 | 89 | 0.0 | 2.0 | 0.00 | 0.00 | 0.00 | 80 | 1021.1 |
| 20260903012705 | 55 | 46 | 0.0 | 3.0 | 0.00 | 0.00 | 0.00 | 80 | 1021.2 |
| 20260903012205 | 55 | 63 | 1.0 | 3.0 | 0.00 | 0.00 | 0.00 | 80 | 1021.1 |
| 20260903011705 | 56 | 117 | 2.0 | 3.0 | 0.00 | 0.00 | 0.00 | 79 | 1021.1 |
| 20260903011205 | 56 | 58 | 2.0 | 3.0 | 0.00 | 0.00 | 0.00 | 79 | 1020.9 |
| 20260903010706 | 56 | 89 | 2.0 | 3.0 | 0.00 | 0.00 | 0.00 | 78 | 1021.1 |
| 20260903005706 | 56 | 135 | 2.0 | 3.0 | 0.00 | 0.00 | 0.00 | 78 | 1021.1 |
| 20260903005206 | 56 | 63 | 2.0 | 3.0 | 0.00 | 0.00 | 0.00 | 77 | 1020.9 |
| 20260903004705 | 56 | 79 | 2.0 | 3.0 | 0.00 | 0.00 | 0.00 | 77 | 1020.9 |
| 20260903004206 | 57 | 104 | 1.0 | 2.0 | 0.00 | 0.00 | 0.00 | 77 | 1021.2 |
| 20260903003705 | 57 | 81 | 1.0 | 2.0 | 0.00 | 0.00 | 0.00 | 76 | 1021.2 |
| 20260903003205 | 57 | 63 | 1.0 | 2.0 | 0.00 | 0.00 | 0.00 | 76 | 1021.2 |
| 20260903002705 | 57 | 46 | 1.0 | 2.0 | 0.00 | 0.00 | 0.00 | 75 | 1021.3 |
| 20260903002206 | 57 | 63 | 0.0 | 1.0 | 0.00 | 0.00 | 0.00 | 75 | 1021.3 |
| 20260903001705 | 57 | 89 | 0.0 | 1.0 | 0.00 | 0.00 | 0.00 | 75 | 1021.3 |
| 20260903001205 | 58 | 46 | 0.0 | 1.0 | 0.00 | 0.00 | 0.00 | 75 | 1021.3 |
| 20260903000705 | 58 | 1 | 0.0 | 1.0 | 0.00 | 0.00 | 0.00 | 75 | 1021.1 |
| 20260903000205 | 58 | 46 | 0.0 | 1.0 | 0.00 | 0.00 | 0.00 | 74 | 1021.1 |
| 20260902235206 | 58 | 89 | 1.0 | 1.0 | 0.00 | 0.00 | 0.00 | 74 | 1021.1 |
| 20260902234705 | 58 | 46 | 0.0 | 2.0 | 0.00 | 0.00 | 0.00 | 74 | 1021.1 |
| 20260902233705 | 59 | 46 | 1.0 | 2.0 | 0.00 | 0.00 | 0.00 | 74 | 1021.2 |
| 20260902233205 | 59 | 35 | 0.0 | 1.0 | 0.00 | 0.00 | 0.00 | 73 | 1021.3 |
| 20260902232706 | 59 | 46 | 0.0 | 1.0 | 0.00 | 0.00 | 0.00 | 73 | 1021.3 |
| 20260902231705 | 60 | 46 | 0.0 | 2.0 | 0.00 | 0.00 | 0.00 | 73 | 1021.2 |
| 20260902231206 | 60 | 117 | 0.0 | 2.0 | 0.00 | 0.00 | 0.00 | 73 | 1021.3 |
| 20260902230727 | 60 | 269 | 1.0 | 2.0 | 0.00 | 0.00 | 0.00 | 73 | 1021.3 |
| 20260902230205 | 60 | 89 | 1.0 | 2.0 | 0.00 | 0.00 | 0.00 | 72 | 1021.2 |
| 20260902225705 | 60 | 51 | 1.0 | 3.0 | 0.00 | 0.00 | 0.00 | 72 | 1021.2 |
| 20260902225205 | 60 | 1 | 1.0 | 3.0 | 0.00 | 0.00 | 0.00 | 72 | 1021.2 |
| 20260902224705 | 60 | 76 | 1.0 | 3.0 | 0.00 | 0.00 | 0.00 | 72 | 1021.2 |
| 20260902224206 | 60 | 89 | 2.0 | 3.0 | 0.00 | 0.00 | 0.00 | 71 | 1021.2 |
| 20260902223705 | 61 | 63 | 1.0 | 2.0 | 0.00 | 0.00 | 0.00 | 70 | 1021.2 |
| 20260902222705 | 61 | 89 | 0.0 | 2.0 | 0.00 | 0.00 | 0.00 | 69 | 1021.3 |
| 20260902222206 | 61 | 72 | 1.0 | 2.0 | 0.00 | 0.00 | 0.00 | 69 | 1021.3 |
| 20260902221706 | 61 | 89 | 1.0 | 3.0 | 0.00 | 0.00 | 0.00 | 69 | 1021.2 |
| 20260902221205 | 61 | 46 | 1.0 | 3.0 | 0.00 | 0.00 | 0.00 | 68 | 1021.1 |
| 20260902220205 | 62 | 68 | 1.0 | 2.0 | 0.00 | 0.00 | 0.00 | 67 | 1020.9 |
| 20260902215705 | 62 | 117 | 0.0 | 2.0 | 0.00 | 0.00 | 0.00 | 67 | 1020.9 |
| 20260902215206 | 62 | 46 | 1.0 | 2.0 | 0.00 | 0.00 | 0.00 | 66 | 1020.8 |
| 20260902214705 | 62 | 15 | 1.0 | 2.0 | 0.00 | 0.00 | 0.00 | 66 | 1020.8 |
| 20260902213705 | 63 | 108 | 1.0 | 2.0 | 0.00 | 0.00 | 0.00 | 66 | 1020.8 |
| 20260902213205 | 63 | 108 | 1.0 | 2.0 | 0.00 | 0.00 | 0.00 | 65 | 1020.8 |
| 20260902212705 | 64 | 28 | 1.0 | 2.0 | 0.00 | 0.00 | 0.00 | 64 | 1020.8 |
| 20260902212206 | 64 | 1 | 1.0 | 2.0 | 0.00 | 0.00 | 0.00 | 63 | 1020.9 |
| 20260902211705 | 64 | 1 | 1.0 | 2.0 | 0.00 | 0.00 | 0.00 | 63 | 1020.9 |
| 20260902211206 | 64 | 11 | 1.0 | 2.0 | 0.00 | 0.00 | 0.00 | 63 | 1020.9 |
| 20260902210705 | 64 | 20 | 1.0 | 2.0 | 0.00 | 0.00 | 0.00 | 62 | 1020.9 |
| 20260902210205 | 64 | 28 | 1.0 | 1.0 | 0.00 | 0.00 | 0.00 | 62 | 1020.9 |
| 20260902205705 | 65 | 63 | 1.0 | 2.0 | 0.00 | 0.00 | 0.00 | 61 | 1020.8 |
| 20260902205205 | 65 | 15 | 0.0 | 2.0 | 0.00 | 0.00 | 0.00 | 61 | 1021.1 |
| 20260902204705 | 65 | 35 | 0.0 | 2.0 | 0.00 | 0.00 | 0.00 | 61 | 1020.9 |
| 20260902204207 | 65 | 331 | 0.0 | 1.0 | 0.00 | 0.00 | 0.00 | 61 | 1020.9 |
| 20260902203705 | 65 | 324 | 0.0 | 2.0 | 0.00 | 0.00 | 0.00 | 60 | 1020.9 |
| 20260902203206 | 65 | 1 | 0.0 | 2.0 | 0.00 | 0.00 | 0.00 | 60 | 1020.8 |
| 20260902202705 | 66 | 63 | 1.0 | 3.0 | 0.00 | 0.00 | 0.00 | 59 | 1020.8 |
| 20260902202234 | 66 | 35 | 1.0 | 3.0 | 0.00 | 0.00 | 0.00 | 59 | 1020.7 |
| 20260902201705 | 66 | 72 | 2.0 | 4.0 | 0.00 | 0.00 | 0.00 | 59 | 1020.8 |
| 20260902201205 | 66 | 1 | 2.0 | 5.0 | 0.00 | 0.00 | 0.00 | 59 | 1020.8 |
| 20260902200705 | 66 | 28 | 2.0 | 5.0 | 0.00 | 0.00 | 0.00 | 59 | 1020.8 |
| 20260902200205 | 67 | 344 | 2.0 | 6.0 | 0.00 | 0.00 | 0.00 | 59 | 1020.8 |
| 20260902195706 | 67 | 21 | 3.0 | 6.0 | 0.00 | 0.00 | 0.00 | 58 | 1020.8 |
| 20260902195205 | 67 | 20 | 3.0 | 6.0 | 0.00 | 0.00 | 0.00 | 57 | 1020.7 |
| 20260902194705 | 67 | 14 | 3.0 | 6.0 | 0.00 | 0.00 | 0.00 | 56 | 1020.8 |
| 20260902194206 | 67 | 35 | 2.0 | 6.0 | 0.00 | 0.00 | 0.00 | 56 | 1020.7 |
| 20260902193705 | 67 | 6 | 2.0 | 5.0 | 0.00 | 0.00 | 0.00 | 56 | 1020.6 |
| 20260902193205 | 68 | 6 | 2.0 | 5.0 | 0.00 | 0.00 | 0.00 | 56 | 1020.6 |
| 20260902192705 | 68 | 32 | 2.0 | 6.0 | 0.00 | 0.00 | 0.00 | 55 | 1020.5 |
| 20260902192206 | 68 | 72 | 2.0 | 8.0 | 0.00 | 0.00 | 0.00 | 55 | 1020.5 |
| 20260902191706 | 68 | 347 | 3.0 | 8.0 | 0.00 | 0.00 | 0.00 | 55 | 1020.4 |
| 20260902191206 | 68 | 354 | 3.0 | 8.0 | 0.00 | 0.00 | 0.00 | 55 | 1020.4 |
| 20260902190206 | 68 | 310 | 3.0 | 7.0 | 0.00 | 0.00 | 0.00 | 53 | 1020.2 |
| 20260902185705 | 68 | 253 | 3.0 | 7.0 | 0.00 | 0.00 | 0.00 | 53 | 1020.0 |
| 20260902184705 | 69 | 283 | 3.0 | 7.0 | 0.00 | 0.00 | 0.00 | 54 | 1020.0 |
| 20260902184205 | 69 | 278 | 3.0 | 7.0 | 0.00 | 0.00 | 0.00 | 53 | 1020.1 |
| 20260902183705 | 69 | 248 | 3.0 | 10.0 | 0.00 | 0.00 | 0.00 | 53 | 1019.9 |
| 20260902183206 | 69 | 295 | 3.0 | 10.0 | 0.00 | 0.00 | 0.00 | 53 | 1019.8 |
| 20260902182705 | 69 | 276 | 4.0 | 8.0 | 0.00 | 0.00 | 0.00 | 53 | 1019.9 |
| 20260902182205 | 69 | 32 | 4.0 | 8.0 | 0.00 | 0.00 | 0.00 | 53 | 1019.8 |
| 20260902181705 | 69 | 257 | 4.0 | 9.0 | 0.00 | 0.00 | 0.00 | 53 | 1019.7 |
| 20260902180205 | 70 | 269 | 5.0 | 12.0 | 0.00 | 0.00 | 0.00 | 53 | 1019.5 |
| 20260902175705 | 70 | 295 | 5.0 | 12.0 | 0.00 | 0.00 | 0.00 | 52 | 1019.5 |
| 20260902174704 | 71 | 248 | 3.0 | 9.0 | 0.00 | 0.00 | 0.00 | 53 | 1019.4 |
| 20260902174208 | 71 | 295 | 4.0 | 8.0 | 0.00 | 0.00 | 0.00 | 53 | 1019.4 |
| 20260902173206 | 71 | 252 | 4.0 | 8.0 | 0.00 | 0.00 | 0.00 | 53 | 1019.3 |
| 20260902172705 | 71 | 283 | 3.0 | 10.0 | 0.00 | 0.00 | 0.00 | 52 | 1019.3 |
| 20260902172205 | 71 | 239 | 4.0 | 10.0 | 0.00 | 0.00 | 0.00 | 52 | 1019.3 |
| 20260902171707 | 71 | 290 | 4.0 | 10.0 | 0.00 | 0.00 | 0.00 | 52 | 1019.3 |
| 20260902171205 | 72 | 262 | 4.0 | 8.0 | 0.00 | 0.00 | 0.00 | 51 | 1019.2 |
| 20260902170725 | 72 | 238 | 4.0 | 8.0 | 0.00 | 0.00 | 0.00 | 51 | 1019.3 |
| 20260902170205 | 72 | 248 | 5.0 | 8.0 | 0.00 | 0.00 | 0.00 | 51 | 1019.3 |
| 20260902165705 | 72 | 269 | 5.0 | 9.0 | 0.00 | 0.00 | 0.00 | 50 | 1019.3 |
| 20260902165206 | 73 | 286 | 5.0 | 13.0 | 0.00 | 0.00 | 0.00 | 49 | 1019.3 |
| 20260902164708 | 73 | 255 | 6.0 | 13.0 | 0.00 | 0.00 | 0.00 | 49 | 1019.3 |
| 20260902164205 | 73 | 246 | 6.0 | 13.0 | 0.00 | 0.00 | 0.00 | 49 | 1019.2 |
| 20260902163705 | 73 | 291 | 6.0 | 12.0 | 0.00 | 0.00 | 0.00 | 49 | 1019.2 |
| 20260902163205 | 73 | 252 | 6.0 | 11.0 | 0.00 | 0.00 | 0.00 | 49 | 1019.2 |
| 20260902162705 | 73 | 257 | 5.0 | 10.0 | 0.00 | 0.00 | 0.00 | 50 | 1019.3 |
| 20260902162206 | 73 | 255 | 5.0 | 11.0 | 0.00 | 0.00 | 0.00 | 50 | 1019.2 |
| 20260902161705 | 73 | 262 | 5.0 | 11.0 | 0.00 | 0.00 | 0.00 | 49 | 1019.3 |
| 20260902160705 | 74 | 231 | 7.0 | 12.0 | 0.00 | 0.00 | 0.00 | 48 | 1019.3 |
| 20260902160205 | 73 | 226 | 7.0 | 13.0 | 0.00 | 0.00 | 0.00 | 49 | 1019.3 |
| 20260902155206 | 73 | 253 | 7.0 | 13.0 | 0.00 | 0.00 | 0.00 | 48 | 1019.3 |
| 20260902154705 | 73 | 236 | 8.0 | 13.0 | 0.00 | 0.00 | 0.00 | 48 | 1019.3 |
| 20260902154205 | 73 | 255 | 7.0 | 14.0 | 0.00 | 0.00 | 0.00 | 48 | 1019.4 |
| 20260902153705 | 73 | 296 | 7.0 | 14.0 | 0.00 | 0.00 | 0.00 | 47 | 1019.4 |
| 20260902153206 | 73 | 283 | 7.0 | 14.0 | 0.00 | 0.00 | 0.00 | 47 | 1019.5 |
| 20260902152206 | 73 | 250 | 7.0 | 12.0 | 0.00 | 0.00 | 0.00 | 47 | 1019.5 |
| 20260902151706 | 73 | 253 | 6.0 | 15.0 | 0.00 | 0.00 | 0.00 | 47 | 1019.6 |
| 20260902151205 | 73 | 241 | 7.0 | 15.0 | 0.00 | 0.00 | 0.00 | 49 | 1019.5 |
| 20260902150706 | 73 | 217 | 8.0 | 14.0 | 0.00 | 0.00 | 0.00 | 48 | 1019.4 |
| 20260902150205 | 73 | 258 | 8.0 | 14.0 | 0.00 | 0.00 | 0.00 | 48 | 1019.5 |
| 20260902145706 | 73 | 250 | 7.0 | 11.0 | 0.00 | 0.00 | 0.00 | 48 | 1019.5 |
| 20260902145205 | 73 | 221 | 6.0 | 10.0 | 0.00 | 0.00 | 0.00 | 49 | 1019.5 |
| 20260902144705 | 73 | 234 | 4.0 | 11.0 | 0.00 | 0.00 | 0.00 | 50 | 1019.5 |
| 20260902144205 | 73 | 257 | 5.0 | 15.0 | 0.00 | 0.00 | 0.00 | 50 | 1019.7 |
| 20260902143705 | 73 | 309 | 6.0 | 15.0 | 0.00 | 0.00 | 0.00 | 49 | 1019.6 |
| 20260902143206 | 74 | 260 | 7.0 | 18.0 | 0.00 | 0.00 | 0.00 | 48 | 1019.7 |
| 20260902142705 | 74 | 231 | 8.0 | 18.0 | 0.00 | 0.00 | 0.00 | 48 | 1019.8 |
| 20260902142205 | 74 | 257 | 9.0 | 18.0 | 0.00 | 0.00 | 0.00 | 47 | 1019.7 |
| 20260902141705 | 75 | 248 | 9.0 | 18.0 | 0.00 | 0.00 | 0.00 | 47 | 1019.5 |
| 20260902141205 | 74 | 201 | 10.0 | 16.0 | 0.00 | 0.00 | 0.00 | 47 | 1019.6 |
| 20260902140705 | 75 | 302 | 9.0 | 16.0 | 0.00 | 0.00 | 0.00 | 47 | 1019.6 |
| 20260902140207 | 75 | 243 | 6.0 | 12.0 | 0.00 | 0.00 | 0.00 | 46 | 1019.6 |
| 20260902135705 | 74 | 272 | 5.0 | 16.0 | 0.00 | 0.00 | 0.00 | 49 | 1019.6 |
| 20260902135205 | 75 | 269 | 8.0 | 16.0 | 0.00 | 0.00 | 0.00 | 48 | 1019.6 |
| 20260902134705 | 74 | 229 | 9.0 | 16.0 | 0.00 | 0.00 | 0.00 | 50 | 1019.7 |
| 20260902134205 | 74 | 285 | 7.0 | 12.0 | 0.00 | 0.00 | 0.00 | 50 | 1019.7 |
| 20260902133706 | 74 | 259 | 5.0 | 12.0 | 0.00 | 0.00 | 0.00 | 50 | 1019.7 |
| 20260902132705 | 73 | 245 | 5.0 | 11.0 | 0.00 | 0.00 | 0.00 | 52 | 1019.7 |
| 20260902132206 | 73 | 238 | 6.0 | 12.0 | 0.00 | 0.00 | 0.00 | 50 | 1019.7 |
| 20260902131705 | 75 | 224 | 6.0 | 12.0 | 0.00 | 0.00 | 0.00 | 48 | 1019.8 |
| 20260902131207 | 75 | 214 | 7.0 | 14.0 | 0.00 | 0.00 | 0.00 | 51 | 1019.8 |
| 20260902130705 | 75 | 248 | 7.0 | 15.0 | 0.00 | 0.00 | 0.00 | 48 | 1019.8 |
| 20260902125204 | 73 | 238 | 7.0 | 11.0 | 0.00 | 0.00 | 0.00 | 50 | 1019.9 |
| 20260902124705 | 73 | 269 | 5.0 | 11.0 | 0.00 | 0.00 | 0.00 | 53 | 1019.9 |
| 20260902124205 | 72 | 269 | 6.0 | 11.0 | 0.00 | 0.00 | 0.00 | 52 | 1019.9 |
| 20260902123705 | 72 | 264 | 6.0 | 13.0 | 0.00 | 0.00 | 0.00 | 52 | 1020.0 |
| 20260902123206 | 72 | 255 | 6.0 | 13.0 | 0.00 | 0.00 | 0.00 | 53 | 1020.1 |
| 20260902122706 | 72 | 255 | 6.0 | 13.0 | 0.00 | 0.00 | 0.00 | 53 | 1020.1 |
| 20260902122206 | 72 | 245 | 5.0 | 11.0 | 0.00 | 0.00 | 0.00 | 55 | 1020.0 |
| 20260902121206 | 72 | 276 | 4.0 | 10.0 | 0.00 | 0.00 | 0.00 | 54 | 1020.1 |
| 20260902120205 | 72 | 240 | 4.0 | 9.0 | 0.00 | 0.00 | 0.00 | 54 | 1020.0 |
| 20260902115205 | 72 | 248 | 4.0 | 16.0 | 0.00 | 0.00 | 0.00 | 55 | 1020.0 |
| 20260902114705 | 72 | 325 | 6.0 | 16.0 | 0.00 | 0.00 | 0.00 | 55 | 1020.0 |
| 20260902114205 | 73 | 229 | 6.0 | 16.0 | 0.00 | 0.00 | 0.00 | 53 | 1020.0 |
| 20260902113705 | 73 | 262 | 4.0 | 8.0 | 0.00 | 0.00 | 0.00 | 56 | 1020.1 |
| 20260902113205 | 73 | 272 | 3.0 | 6.0 | 0.00 | 0.00 | 0.00 | 58 | 1020.2 |
| 20260902112205 | 72 | 233 | 3.0 | 10.0 | 0.00 | 0.00 | 0.00 | 56 | 1020.3 |
| 20260902111704 | 72 | 276 | 4.0 | 10.0 | 0.00 | 0.00 | 0.00 | 55 | 1020.4 |
| 20260902110705 | 72 | 212 | 3.0 | 8.0 | 0.00 | 0.00 | 0.00 | 58 | 1020.6 |
| 20260902110205 | 71 | 258 | 4.0 | 8.0 | 0.00 | 0.00 | 0.00 | 57 | 1020.5 |
| 20260902105705 | 71 | 277 | 5.0 | 8.0 | 0.00 | 0.00 | 0.00 | 57 | 1020.6 |
| 20260902105206 | 72 | 227 | 4.0 | 7.0 | 0.00 | 0.00 | 0.00 | 56 | 1020.6 |
| 20260902104705 | 73 | 262 | 3.0 | 6.0 | 0.00 | 0.00 | 0.00 | 55 | 1020.6 |
| 20260902104205 | 72 | 252 | 3.0 | 6.0 | 0.00 | 0.01 | 0.00 | 57 | 1020.6 |
| 20260902103706 | 71 | 269 | 3.0 | 6.0 | 0.00 | 0.01 | 0.00 | 58 | 1020.6 |
| 20260902103205 | 71 | 190 | 3.0 | 8.0 | 0.00 | 0.01 | 0.00 | 58 | 1020.7 |
| 20260902102705 | 70 | 189 | 4.0 | 8.0 | 0.00 | 0.01 | 0.00 | 59 | 1020.8 |
| 20260902102206 | 69 | 222 | 3.0 | 6.0 | 0.00 | 0.01 | 0.00 | 61 | 1020.7 |
| 20260902101705 | 69 | 279 | 2.0 | 4.0 | 0.00 | 0.01 | 0.00 | 62 | 1020.8 |
| 20260902101205 | 68 | 212 | 2.0 | 4.0 | 0.00 | 0.01 | 0.00 | 64 | 1020.8 |
| 20260902100205 | 67 | 151 | 2.0 | 5.0 | 0.00 | 0.01 | 0.00 | 66 | 1020.9 |
| 20260902095206 | 67 | 205 | 3.0 | 5.0 | 0.00 | 0.01 | 0.00 | 66 | 1020.9 |
| 20260902094705 | 67 | 187 | 2.0 | 5.0 | 0.00 | 0.01 | 0.00 | 68 | 1020.9 |
| 20260902094205 | 66 | 208 | 1.0 | 4.0 | 0.00 | 0.01 | 0.00 | 70 | 1020.9 |
| 20260902093705 | 66 | 113 | 1.0 | 4.0 | 0.00 | 0.01 | 0.00 | 73 | 1021.1 |
| 20260902093205 | 65 | 114 | 2.0 | 4.0 | 0.00 | 0.01 | 0.00 | 73 | 1021.1 |
| 20260902092705 | 65 | 222 | 2.0 | 4.0 | 0.00 | 0.01 | 0.00 | 76 | 1021.2 |
| 20260902092206 | 64 | 222 | 2.0 | 3.0 | 0.00 | 0.01 | 0.00 | 74 | 1021.2 |
| 20260902091706 | 64 | 151 | 1.0 | 4.0 | 0.00 | 0.01 | 0.00 | 75 | 1021.3 |
| 20260902091204 | 62 | 135 | 2.0 | 4.0 | 0.00 | 0.01 | 0.00 | 76 | 1021.2 |
| 20260902090705 | 61 | 178 | 2.0 | 4.0 | 0.00 | 0.01 | 0.00 | 78 | 1021.2 |
| 20260902085705 | 60 | 222 | 2.0 | 3.0 | 0.00 | 0.01 | 0.00 | 83 | 1021.3 |
| 20260902085205 | 60 | 231 | 1.0 | 3.0 | 0.00 | 0.01 | 0.00 | 86 | 1021.2 |
| 20260902084705 | 59 | 202 | 1.0 | 3.0 | 0.00 | 0.01 | 0.00 | 87 | 1021.3 |
| 20260902084205 | 58 | 231 | 2.0 | 3.0 | 0.00 | 0.01 | 0.00 | 88 | 1021.3 |
| 20260902083705 | 58 | 295 | 2.0 | 3.0 | 0.00 | 0.01 | 0.00 | 88 | 1021.3 |
| 20260902083205 | 58 | 208 | 1.0 | 4.0 | 0.00 | 0.01 | 0.00 | 90 | 1021.2 |
| 20260902082734 | 57 | 160 | 1.0 | 4.0 | 0.00 | 0.01 | 0.00 | 90 | 1021.1 |
| 20260902082206 | 57 | 250 | 2.0 | 4.0 | 0.00 | 0.01 | 0.00 | 90 | 1021.1 |
| 20260902081206 | 57 | 269 | 2.0 | 4.0 | 0.00 | 0.01 | 0.00 | 91 | 1021.1 |
| 20260902080705 | 57 | 233 | 2.0 | 4.0 | 0.00 | 0.01 | 0.00 | 91 | 1021.1 |
| 20260902080206 | 56 | 245 | 2.0 | 4.0 | 0.00 | 0.01 | 0.00 | 91 | 1020.9 |
| 20260902075706 | 56 | 219 | 2.0 | 4.0 | 0.00 | 0.01 | 0.00 | 91 | 1021.1 |
| 20260902075205 | 56 | 236 | 1.0 | 2.0 | 0.00 | 0.01 | 0.00 | 91 | 1020.9 |
| 20260902074705 | 55 | 250 | 1.0 | 2.0 | 0.00 | 0.01 | 0.00 | 91 | 1020.7 |
| 20260902074205 | 55 | 240 | 1.0 | 2.0 | 0.00 | 0.01 | 0.00 | 91 | 1020.8 |
| 20260902073705 | 55 | 250 | 1.0 | 2.0 | 0.00 | 0.01 | 0.00 | 92 | 1020.7 |
| 20260902073205 | 55 | 222 | 1.0 | 2.0 | 0.00 | 0.01 | 0.00 | 92 | 1020.6 |
| 20260902072705 | 55 | 269 | 0.0 | 2.0 | 0.00 | 0.01 | 0.00 | 92 | 1020.6 |
| 20260902072206 | 54 | 46 | 1.0 | 2.0 | 0.00 | 0.01 | 0.00 | 92 | 1020.7 |
| 20260902071206 | 54 | 222 | 1.0 | 2.0 | 0.00 | 0.01 | 0.00 | 92 | 1020.9 |
| 20260902070705 | 54 | 231 | 1.0 | 2.0 | 0.00 | 0.01 | 0.00 | 92 | 1020.9 |
| 20260902065706 | 53 | 178 | 1.0 | 2.0 | 0.00 | 0.01 | 0.00 | 91 | 1020.7 |
| 20260902065205 | 53 | 240 | 1.0 | 2.0 | 0.00 | 0.01 | 0.00 | 91 | 1020.7 |
| 20260902064705 | 53 | 215 | 1.0 | 2.0 | 0.00 | 0.01 | 0.00 | 91 | 1020.7 |
| 20260902064205 | 53 | 178 | 1.0 | 2.0 | 0.00 | 0.01 | 0.00 | 91 | 1020.7 |
| 20260902063205 | 52 | 229 | 1.0 | 3.0 | 0.00 | 0.01 | 0.00 | 91 | 1020.8 |
| 20260902062205 | 52 | 201 | 1.0 | 3.0 | 0.00 | 0.01 | 0.00 | 91 | 1020.7 |
| 20260902061706 | 52 | 253 | 1.0 | 3.0 | 0.00 | 0.01 | 0.00 | 91 | 1021.1 |
| 20260902060705 | 52 | 222 | 1.0 | 2.0 | 0.00 | 0.01 | 0.00 | 90 | 1020.8 |
| 20260902060207 | 52 | 201 | 2.0 | 3.0 | 0.00 | 0.01 | 0.00 | 90 | 1020.8 |
| 20260902055705 | 52 | 222 | 1.0 | 3.0 | 0.00 | 0.01 | 0.00 | 90 | 1020.8 |
| 20260902054706 | 51 | 238 | 1.0 | 2.0 | 0.00 | 0.01 | 0.00 | 90 | 1020.8 |
| 20260902054205 | 51 | 215 | 0.0 | 2.0 | 0.00 | 0.01 | 0.00 | 90 | 1020.7 |
| 20260902052706 | 51 | 1 | 1.0 | 3.0 | 0.00 | 0.01 | 0.00 | 90 | 1020.7 |
| 20260902052205 | 51 | 46 | 1.0 | 3.0 | 0.00 | 0.01 | 0.00 | 89 | 1020.6 |
| 20260902051705 | 51 | 108 | 1.0 | 3.0 | 0.00 | 0.01 | 0.00 | 89 | 1020.5 |
| 20260902051205 | 50 | 79 | 0.0 | 2.0 | 0.00 | 0.01 | 0.00 | 89 | 1020.6 |
| 20260902050705 | 50 | 46 | 1.0 | 2.0 | 0.00 | 0.01 | 0.00 | 89 | 1020.8 |
| 20260902045705 | 50 | 89 | 1.0 | 1.0 | 0.00 | 0.01 | 0.00 | 89 | 1020.7 |
| 20260902045205 | 50 | 117 | 0.0 | 1.0 | 0.00 | 0.01 | 0.00 | 89 | 1020.8 |
| 20260902044206 | 50 | 205 | 0.0 | 2.0 | 0.00 | 0.01 | 0.00 | 89 | 1020.8 |
| 20260902043205 | 50 | 46 | 0.0 | 2.0 | 0.00 | 0.01 | 0.00 | 88 | 1020.7 |
| 20260902042205 | 50 | 46 | 1.0 | 2.0 | 0.00 | 0.01 | 0.00 | 88 | 1020.7 |
| 20260902041705 | 50 | 28 | 0.0 | 2.0 | 0.00 | 0.01 | 0.00 | 88 | 1020.7 |
| 20260902041205 | 50 | 46 | 1.0 | 2.0 | 0.00 | 0.01 | 0.00 | 88 | 1020.7 |
| 20260902040705 | 50 | 28 | 1.0 | 2.0 | 0.00 | 0.01 | 0.00 | 88 | 1020.7 |
| 20260902040205 | 50 | 108 | 0.0 | 2.0 | 0.00 | 0.01 | 0.00 | 88 | 1020.8 |
| 20260902035705 | 50 | 28 | 0.0 | 2.0 | 0.00 | 0.01 | 0.00 | 88 | 1020.7 |
| 20260902034735 | 50 | 117 | 0.0 | 2.0 | 0.00 | 0.01 | 0.00 | 88 | 1020.7 |
| 20260902034206 | 51 | 160 | 0.0 | 2.0 | 0.00 | 0.01 | 0.00 | 88 | 1020.7 |
| 20260902033705 | 51 | 46 | 1.0 | 2.0 | 0.00 | 0.01 | 0.00 | 88 | 1020.7 |
| 20260902033206 | 51 | 46 | 1.0 | 2.0 | 0.00 | 0.01 | 0.00 | 88 | 1020.7 |
| 20260902032705 | 51 | 1 | 0.0 | 1.0 | 0.00 | 0.01 | 0.00 | 88 | 1020.8 |
| 20260902032208 | 51 | 117 | 0.0 | 2.0 | 0.00 | 0.01 | 0.00 | 87 | 1020.7 |
| 20260902031206 | 51 | 178 | 1.0 | 2.0 | 0.00 | 0.01 | 0.00 | 88 | 1020.7 |